Year,Month,Day,Hour,Minute,Value (Times are PST for temperature in C)
2016,06,05,00,00,18.20
2016,06,05,00,01,18.20
2016,06,05,00,02,18.20
2016,06,05,00,03,18.20
2016,06,05,00,04,18.10
2016,06,05,00,05,18.10
2016,06,05,00,06,18.10
2016,06,05,00,07,18.10
2016,06,05,00,08,18.10
2016,06,05,00,09,18.10
2016,06,05,00,10,18.10
2016,06,05,00,11,18.10
2016,06,05,00,12,18.00
2016,06,05,00,13,18.00
2016,06,05,00,14,18.00
2016,06,05,00,15,18.00
2016,06,05,00,16,18.00
2016,06,05,00,17,18.00
2016,06,05,00,18,17.90
2016,06,05,00,19,17.90
2016,06,05,00,20,17.90
2016,06,05,00,21,17.90
2016,06,05,00,22,17.90
2016,06,05,00,23,17.90
2016,06,05,00,24,17.90
2016,06,05,00,25,17.90
2016,06,05,00,26,17.80
2016,06,05,00,27,17.80
2016,06,05,00,28,17.80
2016,06,05,00,29,17.80
2016,06,05,00,30,17.80
2016,06,05,00,31,17.80
2016,06,05,00,32,17.80
2016,06,05,00,33,17.80
2016,06,05,00,34,17.80
2016,06,05,00,35,17.80
2016,06,05,00,36,17.80
2016,06,05,00,37,17.80
2016,06,05,00,38,17.80
2016,06,05,00,39,17.70
2016,06,05,00,40,17.70
2016,06,05,00,41,17.70
2016,06,05,00,42,17.70
2016,06,05,00,43,17.70
2016,06,05,00,44,17.70
2016,06,05,00,45,17.70
2016,06,05,00,46,17.70
2016,06,05,00,47,17.70
2016,06,05,00,48,17.70
2016,06,05,00,49,17.70
2016,06,05,00,50,17.60
2016,06,05,00,51,17.60
2016,06,05,00,52,17.60
2016,06,05,00,53,17.60
2016,06,05,00,54,17.60
2016,06,05,00,55,17.60
2016,06,05,00,56,17.60
2016,06,05,00,57,17.60
2016,06,05,00,58,17.60
2016,06,05,00,59,17.50
2016,06,05,01,00,17.50
2016,06,05,01,01,17.50
2016,06,05,01,02,17.50
2016,06,05,01,03,17.40
2016,06,05,01,04,17.40
2016,06,05,01,05,17.40
2016,06,05,01,06,17.40
2016,06,05,01,07,17.40
2016,06,05,01,08,17.40
2016,06,05,01,09,17.40
2016,06,05,01,10,17.30
2016,06,05,01,11,17.30
2016,06,05,01,12,17.30
2016,06,05,01,13,17.30
2016,06,05,01,14,17.30
2016,06,05,01,15,17.30
2016,06,05,01,16,17.30
2016,06,05,01,17,17.30
2016,06,05,01,18,17.30
2016,06,05,01,19,17.30
2016,06,05,01,20,17.30
2016,06,05,01,21,17.20
2016,06,05,01,22,17.20
2016,06,05,01,23,17.20
2016,06,05,01,24,17.20
2016,06,05,01,25,17.20
2016,06,05,01,26,17.20
2016,06,05,01,27,17.20
2016,06,05,01,28,17.10
2016,06,05,01,29,17.10
2016,06,05,01,30,17.10
2016,06,05,01,31,17.10
2016,06,05,01,32,17.10
2016,06,05,01,33,17.10
2016,06,05,01,34,17.10
2016,06,05,01,35,17.10
2016,06,05,01,36,17.00
2016,06,05,01,37,17.00
2016,06,05,01,38,17.00
2016,06,05,01,39,17.00
2016,06,05,01,40,17.00
2016,06,05,01,41,17.00
2016,06,05,01,42,16.90
2016,06,05,01,43,16.90
2016,06,05,01,44,16.90
2016,06,05,01,45,16.90
2016,06,05,01,46,16.90
2016,06,05,01,47,16.90
2016,06,05,01,48,16.90
2016,06,05,01,49,16.90
2016,06,05,01,50,16.90
2016,06,05,01,51,16.90
2016,06,05,01,52,16.90
2016,06,05,01,53,16.90
2016,06,05,01,54,16.90
2016,06,05,01,55,16.90
2016,06,05,01,56,16.90
2016,06,05,01,57,16.90
2016,06,05,01,58,16.90
2016,06,05,01,59,16.90
2016,06,05,02,00,16.90
2016,06,05,02,01,16.90
2016,06,05,02,02,16.90
2016,06,05,02,03,16.90
2016,06,05,02,04,16.90
2016,06,05,02,05,16.90
2016,06,05,02,06,16.90
2016,06,05,02,07,16.90
2016,06,05,02,08,16.90
2016,06,05,02,09,16.90
2016,06,05,02,10,16.90
2016,06,05,02,11,16.90
2016,06,05,02,12,16.90
2016,06,05,02,13,16.90
2016,06,05,02,14,16.90
2016,06,05,02,15,16.90
2016,06,05,02,16,16.80
2016,06,05,02,17,16.80
2016,06,05,02,18,16.80
2016,06,05,02,19,16.80
2016,06,05,02,20,16.80
2016,06,05,02,21,16.80
2016,06,05,02,22,16.80
2016,06,05,02,23,16.80
2016,06,05,02,24,16.80
2016,06,05,02,25,16.80
2016,06,05,02,26,16.70
2016,06,05,02,27,16.70
2016,06,05,02,28,16.70
2016,06,05,02,29,16.70
2016,06,05,02,30,16.70
2016,06,05,02,31,16.70
2016,06,05,02,32,16.70
2016,06,05,02,33,16.70
2016,06,05,02,34,16.70
2016,06,05,02,35,16.70
2016,06,05,02,36,16.60
2016,06,05,02,37,16.60
2016,06,05,02,38,16.60
2016,06,05,02,39,16.60
2016,06,05,02,40,16.60
2016,06,05,02,41,16.60
2016,06,05,02,42,16.60
2016,06,05,02,43,16.60
2016,06,05,02,44,16.60
2016,06,05,02,45,16.50
2016,06,05,02,46,16.50
2016,06,05,02,47,16.50
2016,06,05,02,48,16.50
2016,06,05,02,49,16.50
2016,06,05,02,50,16.50
2016,06,05,02,51,16.40
2016,06,05,02,52,16.40
2016,06,05,02,53,16.40
2016,06,05,02,54,16.40
2016,06,05,02,55,16.40
2016,06,05,02,56,16.40
2016,06,05,02,57,16.40
2016,06,05,02,58,16.40
2016,06,05,02,59,16.40
2016,06,05,03,00,16.40
2016,06,05,03,01,16.30
2016,06,05,03,02,16.30
2016,06,05,03,03,16.30
2016,06,05,03,04,16.30
2016,06,05,03,05,16.30
2016,06,05,03,06,16.30
2016,06,05,03,07,16.30
2016,06,05,03,08,16.30
2016,06,05,03,09,16.30
2016,06,05,03,10,16.20
2016,06,05,03,11,16.20
2016,06,05,03,12,16.30
2016,06,05,03,13,16.30
2016,06,05,03,14,16.30
2016,06,05,03,15,16.30
2016,06,05,03,16,16.30
2016,06,05,03,17,16.30
2016,06,05,03,18,16.30
2016,06,05,03,19,16.30
2016,06,05,03,20,16.30
2016,06,05,03,21,16.30
2016,06,05,03,22,16.30
2016,06,05,03,23,16.30
2016,06,05,03,24,16.30
2016,06,05,03,25,16.30
2016,06,05,03,26,16.30
2016,06,05,03,27,16.30
2016,06,05,03,28,16.30
2016,06,05,03,29,16.30
2016,06,05,03,30,16.30
2016,06,05,03,31,16.30
2016,06,05,03,32,16.30
2016,06,05,03,33,16.30
2016,06,05,03,34,16.30
2016,06,05,03,35,16.30
2016,06,05,03,36,16.30
2016,06,05,03,37,16.30
2016,06,05,03,38,16.30
2016,06,05,03,39,16.30
2016,06,05,03,40,16.20
2016,06,05,03,41,16.20
2016,06,05,03,42,16.20
2016,06,05,03,43,16.20
2016,06,05,03,44,16.20
2016,06,05,03,45,16.20
2016,06,05,03,46,16.20
2016,06,05,03,47,16.20
2016,06,05,03,48,16.20
2016,06,05,03,49,16.20
2016,06,05,03,50,16.20
2016,06,05,03,51,16.10
2016,06,05,03,52,16.10
2016,06,05,03,53,16.10
2016,06,05,03,54,16.10
2016,06,05,03,55,16.10
2016,06,05,03,56,16.10
2016,06,05,03,57,16.10
2016,06,05,03,58,16.10
2016,06,05,03,59,16.10
2016,06,05,04,00,16.10
2016,06,05,04,01,16.10
2016,06,05,04,02,16.10
2016,06,05,04,03,16.10
2016,06,05,04,04,16.10
2016,06,05,04,05,16.10
2016,06,05,04,06,16.10
2016,06,05,04,07,16.10
2016,06,05,04,08,16.00
2016,06,05,04,09,16.00
2016,06,05,04,10,16.00
2016,06,05,04,11,16.00
2016,06,05,04,12,16.00
2016,06,05,04,13,15.90
2016,06,05,04,14,15.90
2016,06,05,04,15,15.90
2016,06,05,04,16,15.90
2016,06,05,04,17,15.90
2016,06,05,04,18,15.90
2016,06,05,04,19,15.90
2016,06,05,04,20,15.80
2016,06,05,04,21,15.80
2016,06,05,04,22,15.80
2016,06,05,04,23,15.80
2016,06,05,04,24,15.80
2016,06,05,04,25,15.80
2016,06,05,04,26,15.80
2016,06,05,04,27,15.80
2016,06,05,04,28,15.80
2016,06,05,04,29,15.80
2016,06,05,04,30,15.80
2016,06,05,04,31,15.80
2016,06,05,04,32,15.80
2016,06,05,04,33,15.80
2016,06,05,04,34,15.70
2016,06,05,04,35,15.70
2016,06,05,04,36,15.70
2016,06,05,04,37,15.70
2016,06,05,04,38,15.70
2016,06,05,04,39,15.70
2016,06,05,04,40,15.70
2016,06,05,04,41,15.70
2016,06,05,04,42,15.70
2016,06,05,04,43,15.70
2016,06,05,04,44,15.70
2016,06,05,04,45,15.70
2016,06,05,04,46,15.70
2016,06,05,04,47,15.70
2016,06,05,04,48,15.70
2016,06,05,04,49,15.70
2016,06,05,04,50,15.70
2016,06,05,04,51,15.60
2016,06,05,04,52,15.60
2016,06,05,04,53,15.60
2016,06,05,04,54,15.60
2016,06,05,04,55,15.60
2016,06,05,04,56,15.60
2016,06,05,04,57,15.60
2016,06,05,04,58,15.60
2016,06,05,04,59,15.60
2016,06,05,05,00,15.60
2016,06,05,05,01,15.60
2016,06,05,05,02,15.60
2016,06,05,05,03,15.60
2016,06,05,05,04,15.50
2016,06,05,05,05,15.50
2016,06,05,05,06,15.50
2016,06,05,05,07,15.50
2016,06,05,05,08,15.50
2016,06,05,05,09,15.50
2016,06,05,05,10,15.50
2016,06,05,05,11,15.50
2016,06,05,05,12,15.50
2016,06,05,05,13,15.50
2016,06,05,05,14,15.50
2016,06,05,05,15,15.50
2016,06,05,05,16,15.50
2016,06,05,05,17,15.40
2016,06,05,05,18,15.40
2016,06,05,05,19,15.40
2016,06,05,05,20,15.40
2016,06,05,05,21,15.40
2016,06,05,05,22,15.40
2016,06,05,05,23,15.40
2016,06,05,05,24,15.40
2016,06,05,05,25,15.40
2016,06,05,05,26,15.40
2016,06,05,05,27,15.40
2016,06,05,05,28,15.40
2016,06,05,05,29,15.40
2016,06,05,05,30,15.40
2016,06,05,05,31,15.40
2016,06,05,05,32,15.40
2016,06,05,05,33,15.40
2016,06,05,05,34,15.40
2016,06,05,05,35,15.40
2016,06,05,05,36,15.40
2016,06,05,05,37,15.40
2016,06,05,05,38,15.40
2016,06,05,05,39,15.50
2016,06,05,05,40,15.50
2016,06,05,05,41,15.50
2016,06,05,05,42,15.50
2016,06,05,05,43,15.50
2016,06,05,05,44,15.50
2016,06,05,05,45,15.50
2016,06,05,05,46,15.60
2016,06,05,05,47,15.60
2016,06,05,05,48,15.60
2016,06,05,05,49,15.60
2016,06,05,05,50,15.60
2016,06,05,05,51,15.60
2016,06,05,05,52,15.60
2016,06,05,05,53,15.60
2016,06,05,05,54,15.60
2016,06,05,05,55,15.60
2016,06,05,05,56,15.60
2016,06,05,05,57,15.60
2016,06,05,05,58,15.70
2016,06,05,05,59,15.70
2016,06,05,06,00,15.70
2016,06,05,06,01,15.70
2016,06,05,06,02,15.70
2016,06,05,06,03,15.70
2016,06,05,06,04,15.80
2016,06,05,06,05,15.80
2016,06,05,06,06,15.80
2016,06,05,06,07,15.90
2016,06,05,06,08,15.90
2016,06,05,06,09,16.00
2016,06,05,06,10,16.00
2016,06,05,06,11,16.10
2016,06,05,06,12,16.10
2016,06,05,06,13,16.20
2016,06,05,06,14,16.20
2016,06,05,06,15,16.20
2016,06,05,06,16,16.30
2016,06,05,06,17,16.30
2016,06,05,06,18,16.30
2016,06,05,06,19,16.40
2016,06,05,06,20,16.40
2016,06,05,06,21,16.50
2016,06,05,06,22,16.50
2016,06,05,06,23,16.60
2016,06,05,06,24,16.70
2016,06,05,06,25,16.70
2016,06,05,06,26,16.80
2016,06,05,06,27,16.80
2016,06,05,06,28,16.90
2016,06,05,06,29,16.90
2016,06,05,06,30,17.00
2016,06,05,06,31,17.10
2016,06,05,06,32,17.20
2016,06,05,06,33,17.30
2016,06,05,06,34,17.30
2016,06,05,06,35,17.40
2016,06,05,06,36,17.50
2016,06,05,06,37,17.60
2016,06,05,06,38,17.70
2016,06,05,06,39,17.70
2016,06,05,06,40,17.70
2016,06,05,06,41,17.70
2016,06,05,06,42,17.70
2016,06,05,06,43,17.70
2016,06,05,06,44,17.60
2016,06,05,06,45,17.50
2016,06,05,06,46,17.50
2016,06,05,06,47,17.40
2016,06,05,06,48,17.40
2016,06,05,06,49,17.30
2016,06,05,06,50,17.30
2016,06,05,06,51,17.30
2016,06,05,06,52,17.30
2016,06,05,06,53,17.30
2016,06,05,06,54,17.30
2016,06,05,06,55,17.30
2016,06,05,06,56,17.30
2016,06,05,06,57,17.30
2016,06,05,06,58,17.30
2016,06,05,06,59,17.30
2016,06,05,07,00,17.30
2016,06,05,07,01,17.20
2016,06,05,07,02,17.20
2016,06,05,07,03,17.20
2016,06,05,07,04,17.20
2016,06,05,07,05,17.20
2016,06,05,07,06,17.20
2016,06,05,07,07,17.20
2016,06,05,07,08,17.20
2016,06,05,07,09,17.20
2016,06,05,07,10,17.20
2016,06,05,07,11,17.20
2016,06,05,07,12,17.20
2016,06,05,07,13,17.20
2016,06,05,07,14,17.20
2016,06,05,07,15,17.10
2016,06,05,07,16,17.10
2016,06,05,07,17,17.10
2016,06,05,07,18,17.10
2016,06,05,07,19,17.20
2016,06,05,07,20,17.20
2016,06,05,07,21,17.20
2016,06,05,07,22,17.20
2016,06,05,07,23,17.20
2016,06,05,07,24,17.30
2016,06,05,07,25,17.30
2016,06,05,07,26,17.40
2016,06,05,07,27,17.50
2016,06,05,07,28,17.50
2016,06,05,07,29,17.60
2016,06,05,07,30,17.70
2016,06,05,07,31,17.70
2016,06,05,07,32,17.80
2016,06,05,07,33,17.80
2016,06,05,07,34,17.80
2016,06,05,07,35,17.80
2016,06,05,07,36,17.90
2016,06,05,07,37,17.90
2016,06,05,07,38,18.00
2016,06,05,07,39,18.00
2016,06,05,07,40,18.10
2016,06,05,07,41,18.10
2016,06,05,07,42,18.10
2016,06,05,07,43,18.20
2016,06,05,07,44,18.20
2016,06,05,07,45,18.20
2016,06,05,07,46,18.30
2016,06,05,07,47,18.30
2016,06,05,07,48,18.30
2016,06,05,07,49,18.30
2016,06,05,07,50,18.30
2016,06,05,07,51,18.40
2016,06,05,07,52,18.40
2016,06,05,07,53,18.40
2016,06,05,07,54,18.40
2016,06,05,07,55,18.40
2016,06,05,07,56,18.50
2016,06,05,07,57,18.50
2016,06,05,07,58,18.50
2016,06,05,07,59,18.50
2016,06,05,08,00,18.50
2016,06,05,08,01,18.60
2016,06,05,08,02,18.60
2016,06,05,08,03,18.60
2016,06,05,08,04,18.60
2016,06,05,08,05,18.60
2016,06,05,08,06,18.60
2016,06,05,08,07,18.60
2016,06,05,08,08,18.70
2016,06,05,08,09,18.70
2016,06,05,08,10,18.70
2016,06,05,08,11,18.70
2016,06,05,08,12,18.80
2016,06,05,08,13,18.80
2016,06,05,08,14,18.80
2016,06,05,08,15,18.90
2016,06,05,08,16,18.90
2016,06,05,08,17,18.90
2016,06,05,08,18,19.00
2016,06,05,08,19,19.00
2016,06,05,08,20,19.10
2016,06,05,08,21,19.10
2016,06,05,08,22,19.20
2016,06,05,08,23,19.20
2016,06,05,08,24,19.30
2016,06,05,08,25,19.30
2016,06,05,08,26,19.40
2016,06,05,08,27,19.40
2016,06,05,08,28,19.50
2016,06,05,08,29,19.60
2016,06,05,08,30,19.60
2016,06,05,08,31,19.70
2016,06,05,08,32,19.70
2016,06,05,08,33,19.80
2016,06,05,08,34,19.90
2016,06,05,08,35,19.90
2016,06,05,08,36,20.00
2016,06,05,08,37,20.10
2016,06,05,08,38,20.10
2016,06,05,08,39,20.20
2016,06,05,08,40,20.30
2016,06,05,08,41,20.40
2016,06,05,08,42,20.50
2016,06,05,08,43,20.60
2016,06,05,08,44,20.80
2016,06,05,08,45,20.90
2016,06,05,08,46,21.00
2016,06,05,08,47,21.10
2016,06,05,08,48,21.20
2016,06,05,08,49,21.40
2016,06,05,08,50,21.50
2016,06,05,08,51,21.60
2016,06,05,08,52,21.70
2016,06,05,08,53,21.70
2016,06,05,08,54,21.80
2016,06,05,08,55,21.90
2016,06,05,08,56,22.00
2016,06,05,08,57,22.10
2016,06,05,08,58,22.20
2016,06,05,08,59,22.30
2016,06,05,09,00,22.30
2016,06,05,09,01,22.40
2016,06,05,09,02,22.50
2016,06,05,09,03,22.60
2016,06,05,09,04,22.70
2016,06,05,09,05,22.80
2016,06,05,09,06,22.80
2016,06,05,09,07,22.90
2016,06,05,09,08,23.00
2016,06,05,09,09,23.10
2016,06,05,09,10,23.10
2016,06,05,09,11,23.20
2016,06,05,09,12,23.30
2016,06,05,09,13,23.30
2016,06,05,09,14,23.40
2016,06,05,09,15,23.50
2016,06,05,09,16,23.50
2016,06,05,09,17,23.60
2016,06,05,09,18,23.70
2016,06,05,09,19,23.80
2016,06,05,09,20,23.90
2016,06,05,09,21,23.90
2016,06,05,09,22,24.00
2016,06,05,09,23,24.10
2016,06,05,09,24,24.20
2016,06,05,09,25,24.20
2016,06,05,09,26,24.30
2016,06,05,09,27,24.30
2016,06,05,09,28,24.30
2016,06,05,09,29,24.40
2016,06,05,09,30,24.40
2016,06,05,09,31,24.40
2016,06,05,09,32,24.50
2016,06,05,09,33,24.50
2016,06,05,09,34,24.50
2016,06,05,09,35,24.60
2016,06,05,09,36,24.60
2016,06,05,09,37,24.60
2016,06,05,09,38,24.70
2016,06,05,09,39,24.70
2016,06,05,09,40,24.70
2016,06,05,09,41,24.80
2016,06,05,09,42,24.80
2016,06,05,09,43,24.90
2016,06,05,09,44,24.90
2016,06,05,09,45,24.90
2016,06,05,09,46,25.00
2016,06,05,09,47,25.10
2016,06,05,09,48,25.10
2016,06,05,09,49,25.20
2016,06,05,09,50,25.20
2016,06,05,09,51,25.30
2016,06,05,09,52,25.40
2016,06,05,09,53,25.40
2016,06,05,09,54,25.50
2016,06,05,09,55,25.50
2016,06,05,09,56,25.60
2016,06,05,09,57,25.60
2016,06,05,09,58,25.60
2016,06,05,09,59,25.60
2016,06,05,10,00,25.60
2016,06,05,10,01,25.60
2016,06,05,10,02,25.60
2016,06,05,10,03,25.60
2016,06,05,10,04,25.60
2016,06,05,10,05,25.70
2016,06,05,10,06,25.70
2016,06,05,10,07,25.70
2016,06,05,10,08,25.80
2016,06,05,10,09,25.80
2016,06,05,10,10,25.90
2016,06,05,10,11,25.90
2016,06,05,10,12,25.90
2016,06,05,10,13,26.00
2016,06,05,10,14,26.10
2016,06,05,10,15,26.10
2016,06,05,10,16,26.20
2016,06,05,10,17,26.20
2016,06,05,10,18,26.30
2016,06,05,10,19,26.30
2016,06,05,10,20,26.40
2016,06,05,10,21,26.40
2016,06,05,10,22,26.50
2016,06,05,10,23,26.50
2016,06,05,10,24,26.50
2016,06,05,10,25,26.60
2016,06,05,10,26,26.60
2016,06,05,10,27,26.60
2016,06,05,10,28,26.60
2016,06,05,10,29,26.70
2016,06,05,10,30,26.70
2016,06,05,10,31,26.70
2016,06,05,10,32,26.70
2016,06,05,10,33,26.70
2016,06,05,10,34,26.70
2016,06,05,10,35,26.70
2016,06,05,10,36,26.70
2016,06,05,10,37,26.70
2016,06,05,10,38,26.70
2016,06,05,10,39,26.70
2016,06,05,10,40,26.70
2016,06,05,10,41,26.70
2016,06,05,10,42,26.70
2016,06,05,10,43,26.70
2016,06,05,10,44,26.70
2016,06,05,10,45,26.80
2016,06,05,10,46,26.80
2016,06,05,10,47,26.80
2016,06,05,10,48,26.80
2016,06,05,10,49,26.90
2016,06,05,10,50,26.90
2016,06,05,10,51,26.90
2016,06,05,10,52,26.90
2016,06,05,10,53,26.80
2016,06,05,10,54,26.80
2016,06,05,10,55,26.90
2016,06,05,10,56,26.90
2016,06,05,10,57,26.80
2016,06,05,10,58,26.80
2016,06,05,10,59,26.90
2016,06,05,11,00,26.90
2016,06,05,11,01,26.90
2016,06,05,11,02,26.90
2016,06,05,11,03,26.90
2016,06,05,11,04,27.00
2016,06,05,11,05,27.00
2016,06,05,11,06,27.10
2016,06,05,11,07,27.10
2016,06,05,11,08,27.20
2016,06,05,11,09,27.20
2016,06,05,11,10,27.30
2016,06,05,11,11,27.40
2016,06,05,11,12,27.40
2016,06,05,11,13,27.50
2016,06,05,11,14,27.50
2016,06,05,11,15,27.60
2016,06,05,11,16,27.70
2016,06,05,11,17,27.70
2016,06,05,11,18,27.70
2016,06,05,11,19,27.70
2016,06,05,11,20,27.80
2016,06,05,11,21,27.80
2016,06,05,11,22,27.80
2016,06,05,11,23,27.80
2016,06,05,11,24,27.80
2016,06,05,11,25,27.80
2016,06,05,11,26,27.80
2016,06,05,11,27,27.80
2016,06,05,11,28,27.80
2016,06,05,11,29,27.80
2016,06,05,11,30,27.80
2016,06,05,11,31,27.80
2016,06,05,11,32,27.80
2016,06,05,11,33,27.80
2016,06,05,11,34,27.80
2016,06,05,11,35,27.90
2016,06,05,11,36,27.90
2016,06,05,11,37,27.90
2016,06,05,11,38,27.90
2016,06,05,11,39,28.00
2016,06,05,11,40,28.10
2016,06,05,11,41,28.10
2016,06,05,11,42,28.10
2016,06,05,11,43,28.10
2016,06,05,11,44,28.10
2016,06,05,11,45,28.10
2016,06,05,11,46,28.10
2016,06,05,11,47,28.10
2016,06,05,11,48,28.10
2016,06,05,11,49,28.20
2016,06,05,11,50,28.20
2016,06,05,11,51,28.20
2016,06,05,11,52,28.20
2016,06,05,11,53,28.20
2016,06,05,11,54,28.30
2016,06,05,11,55,28.30
2016,06,05,11,56,28.30
2016,06,05,11,57,28.30
2016,06,05,11,58,28.30
2016,06,05,11,59,28.40
2016,06,05,12,00,28.40
2016,06,05,12,01,28.50
2016,06,05,12,02,28.50
2016,06,05,12,03,28.60
2016,06,05,12,04,28.60
2016,06,05,12,05,28.60
2016,06,05,12,06,28.70
2016,06,05,12,07,28.70
2016,06,05,12,08,28.70
2016,06,05,12,09,28.70
2016,06,05,12,10,28.80
2016,06,05,12,11,28.80
2016,06,05,12,12,28.80
2016,06,05,12,13,28.80
2016,06,05,12,14,28.80
2016,06,05,12,15,28.80
2016,06,05,12,16,28.80
2016,06,05,12,17,28.80
2016,06,05,12,18,28.80
2016,06,05,12,19,28.80
2016,06,05,12,20,28.80
2016,06,05,12,21,28.90
2016,06,05,12,22,28.90
2016,06,05,12,23,28.90
2016,06,05,12,24,28.90
2016,06,05,12,25,28.90
2016,06,05,12,26,28.90
2016,06,05,12,27,28.90
2016,06,05,12,28,28.90
2016,06,05,12,29,28.90
2016,06,05,12,30,28.90
2016,06,05,12,31,28.80
2016,06,05,12,32,28.90
2016,06,05,12,33,28.90
2016,06,05,12,34,28.90
2016,06,05,12,35,28.90
2016,06,05,12,36,28.90
2016,06,05,12,37,28.90
2016,06,05,12,38,28.90
2016,06,05,12,39,28.90
2016,06,05,12,40,28.90
2016,06,05,12,41,28.90
2016,06,05,12,42,28.90
2016,06,05,12,43,28.90
2016,06,05,12,44,29.00
2016,06,05,12,45,29.00
2016,06,05,12,46,29.00
2016,06,05,12,47,29.10
2016,06,05,12,48,29.10
2016,06,05,12,49,29.10
2016,06,05,12,50,29.10
2016,06,05,12,51,29.10
2016,06,05,12,52,29.10
2016,06,05,12,53,29.20
2016,06,05,12,54,29.20
2016,06,05,12,55,29.20
2016,06,05,12,56,29.30
2016,06,05,12,57,29.30
2016,06,05,12,58,29.30
2016,06,05,12,59,29.40
2016,06,05,13,00,29.50
2016,06,05,13,01,29.60
2016,06,05,13,02,29.60
2016,06,05,13,03,29.70
2016,06,05,13,04,29.70
2016,06,05,13,05,29.70
2016,06,05,13,06,29.70
2016,06,05,13,07,29.70
2016,06,05,13,08,29.60
2016,06,05,13,09,29.60
2016,06,05,13,10,29.60
2016,06,05,13,11,29.60
2016,06,05,13,12,29.60
2016,06,05,13,13,29.60
2016,06,05,13,14,29.50
2016,06,05,13,15,29.30
2016,06,05,13,16,29.00
2016,06,05,13,17,28.70
2016,06,05,13,18,28.40
2016,06,05,13,19,28.00
2016,06,05,13,20,27.70
2016,06,05,13,21,27.40
2016,06,05,13,22,27.10
2016,06,05,13,23,26.80
2016,06,05,13,24,26.40
2016,06,05,13,25,26.10
2016,06,05,13,26,25.90
2016,06,05,13,27,25.60
2016,06,05,13,28,25.40
2016,06,05,13,29,25.30
2016,06,05,13,30,25.10
2016,06,05,13,31,25.00
2016,06,05,13,32,24.80
2016,06,05,13,33,24.70
2016,06,05,13,34,24.60
2016,06,05,13,35,24.50
2016,06,05,13,36,24.40
2016,06,05,13,37,24.30
2016,06,05,13,38,24.20
2016,06,05,13,39,24.10
2016,06,05,13,40,24.00
2016,06,05,13,41,23.90
2016,06,05,13,42,23.80
2016,06,05,13,43,23.80
2016,06,05,13,44,23.80
2016,06,05,13,45,23.70
2016,06,05,13,46,23.70
2016,06,05,13,47,23.70
2016,06,05,13,48,23.70
2016,06,05,13,49,23.70
2016,06,05,13,50,23.70
2016,06,05,13,51,23.70
2016,06,05,13,52,23.70
2016,06,05,13,53,23.70
2016,06,05,13,54,23.70
2016,06,05,13,55,23.70
2016,06,05,13,56,23.70
2016,06,05,13,57,23.70
2016,06,05,13,58,23.60
2016,06,05,13,59,23.60
2016,06,05,14,00,23.60
2016,06,05,14,01,23.60
2016,06,05,14,02,23.70
2016,06,05,14,03,23.70
2016,06,05,14,04,23.70
2016,06,05,14,05,23.70
2016,06,05,14,06,23.70
2016,06,05,14,07,23.60
2016,06,05,14,08,23.60
2016,06,05,14,09,23.50
2016,06,05,14,10,23.40
2016,06,05,14,11,23.40
2016,06,05,14,12,23.30
2016,06,05,14,13,23.20
2016,06,05,14,14,23.20
2016,06,05,14,15,23.10
2016,06,05,14,16,23.10
2016,06,05,14,17,23.10
2016,06,05,14,18,23.10
2016,06,05,14,19,23.20
2016,06,05,14,20,23.20
2016,06,05,14,21,23.20
2016,06,05,14,22,23.30
2016,06,05,14,23,23.30
2016,06,05,14,24,23.40
2016,06,05,14,25,23.50
2016,06,05,14,26,23.50
2016,06,05,14,27,23.60
2016,06,05,14,28,23.60
2016,06,05,14,29,23.70
2016,06,05,14,30,23.80
2016,06,05,14,31,23.80
2016,06,05,14,32,23.90
2016,06,05,14,33,23.90
2016,06,05,14,34,24.00
2016,06,05,14,35,24.00
2016,06,05,14,36,24.10
2016,06,05,14,37,24.10
2016,06,05,14,38,24.10
2016,06,05,14,39,24.10
2016,06,05,14,40,24.10
2016,06,05,14,41,24.20
2016,06,05,14,42,24.20
2016,06,05,14,43,24.30
2016,06,05,14,44,24.30
2016,06,05,14,45,24.40
2016,06,05,14,46,24.50
2016,06,05,14,47,24.60
2016,06,05,14,48,24.70
2016,06,05,14,49,24.80
2016,06,05,14,50,24.80
2016,06,05,14,51,24.90
2016,06,05,14,52,25.00
2016,06,05,14,53,25.00
2016,06,05,14,54,25.10
2016,06,05,14,55,25.10
2016,06,05,14,56,25.00
2016,06,05,14,57,25.00
2016,06,05,14,58,25.00
2016,06,05,14,59,25.10
2016,06,05,15,00,25.10
2016,06,05,15,01,25.10
2016,06,05,15,02,25.20
2016,06,05,15,03,25.20
2016,06,05,15,04,25.30
2016,06,05,15,05,25.30
2016,06,05,15,06,25.30
2016,06,05,15,07,25.30
2016,06,05,15,08,25.30
2016,06,05,15,09,25.20
2016,06,05,15,10,25.20
2016,06,05,15,11,25.20
2016,06,05,15,12,25.20
2016,06,05,15,13,25.20
2016,06,05,15,14,25.20
2016,06,05,15,15,25.20
2016,06,05,15,16,25.20
2016,06,05,15,17,25.30
2016,06,05,15,18,25.30
2016,06,05,15,19,25.40
2016,06,05,15,20,25.40
2016,06,05,15,21,25.50
2016,06,05,15,22,25.50
2016,06,05,15,23,25.60
2016,06,05,15,24,25.60
2016,06,05,15,25,25.70
2016,06,05,15,26,25.70
2016,06,05,15,27,25.80
2016,06,05,15,28,25.90
2016,06,05,15,29,26.00
2016,06,05,15,30,26.10
2016,06,05,15,31,26.10
2016,06,05,15,32,26.20
2016,06,05,15,33,26.30
2016,06,05,15,34,26.30
2016,06,05,15,35,26.40
2016,06,05,15,36,26.50
2016,06,05,15,37,26.50
2016,06,05,15,38,26.60
2016,06,05,15,39,26.60
2016,06,05,15,40,26.70
2016,06,05,15,41,26.70
2016,06,05,15,42,26.80
2016,06,05,15,43,26.90
2016,06,05,15,44,27.00
2016,06,05,15,45,27.10
2016,06,05,15,46,27.20
2016,06,05,15,47,27.30
2016,06,05,15,48,27.30
2016,06,05,15,49,27.40
2016,06,05,15,50,27.40
2016,06,05,15,51,27.40
2016,06,05,15,52,27.40
2016,06,05,15,53,27.40
2016,06,05,15,54,27.40
2016,06,05,15,55,27.40
2016,06,05,15,56,27.40
2016,06,05,15,57,27.40
2016,06,05,15,58,27.40
2016,06,05,15,59,27.40
2016,06,05,16,00,27.40
2016,06,05,16,01,27.50
2016,06,05,16,02,27.60
2016,06,05,16,03,27.70
2016,06,05,16,04,27.80
2016,06,05,16,05,27.90
2016,06,05,16,06,28.00
2016,06,05,16,07,28.10
2016,06,05,16,08,28.20
2016,06,05,16,09,28.30
2016,06,05,16,10,28.30
2016,06,05,16,11,28.30
2016,06,05,16,12,28.30
2016,06,05,16,13,28.40
2016,06,05,16,14,28.40
2016,06,05,16,15,28.50
2016,06,05,16,16,28.50
2016,06,05,16,17,28.60
2016,06,05,16,18,28.60
2016,06,05,16,19,28.60
2016,06,05,16,20,28.60
2016,06,05,16,21,28.60
2016,06,05,16,22,28.70
2016,06,05,16,23,28.70
2016,06,05,16,24,28.70
2016,06,05,16,25,28.70
2016,06,05,16,26,28.70
2016,06,05,16,27,28.70
2016,06,05,16,28,28.70
2016,06,05,16,29,28.70
2016,06,05,16,30,28.80
2016,06,05,16,31,28.80
2016,06,05,16,32,28.80
2016,06,05,16,33,28.80
2016,06,05,16,34,28.80
2016,06,05,16,35,28.80
2016,06,05,16,36,28.80
2016,06,05,16,37,28.90
2016,06,05,16,38,28.90
2016,06,05,16,39,28.80
2016,06,05,16,40,28.80
2016,06,05,16,41,28.80
2016,06,05,16,42,28.80
2016,06,05,16,43,28.80
2016,06,05,16,44,28.80
2016,06,05,16,45,28.90
2016,06,05,16,46,28.90
2016,06,05,16,47,28.80
2016,06,05,16,48,28.80
2016,06,05,16,49,28.70
2016,06,05,16,50,28.70
2016,06,05,16,51,28.60
2016,06,05,16,52,28.40
2016,06,05,16,53,28.20
2016,06,05,16,54,28.10
2016,06,05,16,55,28.00
2016,06,05,16,56,27.90
2016,06,05,16,57,27.90
2016,06,05,16,58,27.90
2016,06,05,16,59,27.90
2016,06,05,17,00,27.90
2016,06,05,17,01,27.90
2016,06,05,17,02,28.00
2016,06,05,17,03,28.00
2016,06,05,17,04,28.10
2016,06,05,17,05,28.10
2016,06,05,17,06,28.10
2016,06,05,17,07,28.10
2016,06,05,17,08,28.00
2016,06,05,17,09,28.00
2016,06,05,17,10,28.00
2016,06,05,17,11,27.90
2016,06,05,17,12,27.90
2016,06,05,17,13,27.90
2016,06,05,17,14,27.90
2016,06,05,17,15,27.90
2016,06,05,17,16,27.90
2016,06,05,17,17,27.90
2016,06,05,17,18,27.80
2016,06,05,17,19,27.80